Regional Weather Roundup
Issued by NWS

Home | Current Version | Previous Version | Text Only | Print | Product List | Glossary Off
Versions: 1 2 3 4 5 6 7 8 9 10 11 12 13 14 15 16 17 18 19 20 21 22 23 24 25 26 27 28 29 30 31 32 33 34 35 36 37 38 39 40 41 42 43 44 45 46 47 48 49 50

000
ASUS43 KBIS 022202
RWRND

NORTH DAKOTA REGIONAL WEATHER ROUNDUP
NATIONAL WEATHER SERVICE BISMARCK ND
500 PM CDT MON MAY 02 2016

NOTE: "FAIR" INDICATES FEW OR NO CLOUDS BELOW 12,000 FEET WITH NO
SIGNIFICANT WEATHER AND/OR OBSTRUCTIONS TO VISIBILITY.


NDZ001>003-009>011-017-022300-
NORTHWEST NORTH DAKOTA

CITY           SKY/WX    TMP DP  RH WIND       PRES   REMARKS
WILLISTON      SUNNY     74  27  17 N14G21    29.99F
MINOT          SUNNY     73  34  23 NE14      29.98S
$$

NDZ018>021-031>035-040>046-022300-
SOUTHWEST NORTH DAKOTA

CITY           SKY/WX    TMP DP  RH WIND       PRES   REMARKS
BISMARCK       PTSUNNY   63  43  48 E10       29.97F
DICKINSON      SUNNY     67  31  26 N17G25    29.97S
GARRISON         N/A     68  37  32 NE10G16   29.98S
HETTINGER ARPT MOSUNNY   68  29  23 N23G37    29.96S
$$

NDZ004>008-012>016-024-026-027-054-022300-
NORTHEAST NORTH DAKOTA

CITY           SKY/WX    TMP DP  RH WIND       PRES   REMARKS
GRAND FORKS    PTSUNNY   71  26  18 VRB5      29.94F
GRND FRKS AFB  SUNNY     70  25  18 E5        29.95F
DEVILS LAKE    SUNNY     65  33  30 S3        29.99F
$$

NDZ022-023-025-028>030-036>039-047>053-022300-
SOUTHEAST NORTH DAKOTA

CITY           SKY/WX    TMP DP  RH WIND       PRES   REMARKS
FARGO          SUNNY     69  27  20 CALM      29.95F
JAMESTOWN      SUNNY     60  40  47 S14       29.99F
$$




USA.gov is the U.S. government's official web portal to all federal, state and local government web resources and services.